1522072800.41,10909,13.88,72528.8,-0.51,-32.85,-30.11,0,*6A
1522072801.66,10910,13.88,72530.8,-0.51,-33.03,-31.57,0,*6E
1522072802.91,10911,13.88,72528.5,-0.51,-33.21,-32.45,0,*6F
1522072804.16,10912,13.88,72526.3,-0.53,-33.43,-32.45,0,*6A
1522072805.41,10913,13.88,72528.5,-0.55,-34.89,-33.27,0,*69
1522072806.67,10914,13.88,72528.5,-0.55,-34.53,-33.03,0,*6F
1522072807.92,10915,13.88,72528.5,-0.55,-35.29,-33.61,0,*66
1522072809.21,10916,13.94,72530.0,-0.59,-33.77,-30.77,0,*60
1522072810.49,10917,13.88,72532.0,-0.59,-28.75,-29.01,0,*60
1522072811.74,10918,13.88,72530.0,-0.59,-27.03,-27.99,0,*6E
1522072813.03,10919,13.88,72528.3,-0.59,-29.01,-30.05,0,*60
1522072814.31,10920,13.88,72530.5,-0.59,-29.01,-28.43,0,*61
1522072815.51,10921,13.88,72532.0,-0.61,-26.61,-25.09,0,*61
1522072816.74,10922,13.88,72532.3,-0.59,-27.71,-27.89,0,*63
1522072818.03,10923,13.88,72530.5,-0.59,-28.91,-28.25,0,*6A
1522072819.24,10924,13.88,72534.0,-0.57,-31.29,-31.45,0,*66
1522072820.52,10925,13.88,72530.8,-0.59,-30.95,-30.05,0,*6A
1522072821.74,10926,13.88,72530.3,-0.59,-30.11,-29.07,0,*6F
1522072823.02,10927,13.88,72534.0,-0.59,-30.61,-30.05,0,*63
1522072824.28,10928,13.88,72530.5,-0.59,-30.77,-31.45,0,*6E
1522072825.54,10929,13.88,72534.8,-0.59,-30.51,-31.45,0,*6B
1522072826.8,10930,13.88,72532.5,-0.59,-31.73,-32.23,0,*61
1522072828.02,10931,13.88,72534.0,-0.59,-32.57,-32.57,0,*66
1522072829.27,10932,13.88,72528.0,-0.61,-33.49,-32.97,0,*6C
1522072830.51,10933,13.88,72532.0,-0.61,-32.69,-31.39,0,*69
1522072831.76,10934,13.88,72534.0,-0.63,-32.23,-32.07,0,*6C
1522072833.02,10935,13.88,72534.0,-0.63,-32.63,-32.39,0,*64
1522072834.3,10936,13.88,72532.5,-0.63,-31.95,-31.91,0,*6C
1522072835.58,10937,13.94,72534.8,-0.63,-32.79,-32.85,0,*6A
1522072836.81,10938,13.88,72532.0,-0.61,-33.37,-33.31,0,*62
1522072838.04,10939,13.88,72530.5,-0.61,-33.49,-33.15,0,*6C
1522072839.26,10940,13.88,72532.5,-0.61,-33.03,-32.97,0,*67
1522072840.49,10941,13.94,72538.5,-0.63,-33.21,-33.15,0,*6F
1522072841.74,10942,13.94,72534.3,-0.61,-33.49,-32.97,0,*6B
1522072842.97,10943,13.88,72534.5,-0.61,-33.03,-32.63,0,*6F
1522072844.21,10944,13.88,72536.0,-0.57,-33.27,-32.97,0,*60
1522072845.44,10945,13.88,72532.3,-0.59,-32.23,-32.39,0,*6E
1522072846.7,10946,13.94,72536.3,-0.59,-31.01,-31.51,0,*63
1522072847.95,10947,13.94,72538.0,-0.59,-32.19,-32.91,0,*67
1522072849.21,10948,13.94,72536.5,-0.59,-33.09,-33.67,0,*60
1522072850.45,10949,13.94,72536.5,-0.59,-32.01,-32.39,0,*62
1522072851.71,10950,13.94,72534.8,-0.63,-32.79,-32.23,0,*67
1522072852.96,10951,13.94,72534.8,-0.63,-30.89,-31.17,0,*6F
1522072854.25,10952,13.88,72532.3,-0.63,-31.57,-32.07,0,*6C
1522072855.47,10953,13.88,72534.0,-0.61,-31.51,-31.79,0,*63
1522072856.72,10954,13.88,72532.8,-0.63,-32.79,-33.21,0,*60
1522072857.98,10955,13.88,72534.0,-0.63,-31.79,-32.79,0,*6E
1522072859.19,10956,13.88,72532.8,-0.61,-32.69,-33.37,0,*66
1522072860.38,10957,13.94,72532.8,-0.61,-32.23,-32.57,0,*6E
1522072861.61,10958,13.88,72532.5,-0.61,-32.23,-32.45,0,*62
1522072862.83,10959,13.88,72532.5,-0.61,-32.45,-32.57,0,*60
1522072864.05,10960,13.88,72534.0,-0.61,-32.63,-32.69,0,*63
1522072865.31,10961,13.88,72532.8,-0.61,-31.95,-31.95,0,*68
1522072866.57,10962,13.88,72534.8,-0.61,-31.73,-32.45,0,*6D
1522072867.79,10963,13.94,72532.3,-0.61,-31.51,-32.13,0,*6F
1522072868.98,10964,13.88,72532.0,-0.61,-30.45,-31.33,0,*6D
1522072870.19,10965,13.88,72534.5,-0.57,-30.67,-31.33,0,*69
1522072871.38,10966,13.88,72534.5,-0.57,-31.01,-31.67,0,*6A
1522072872.63,10967,13.88,72532.5,-0.59,-32.39,-33.49,0,*63
1522072873.86,10968,13.94,72532.5,-0.57,-32.91,-33.43,0,*6A
1522072875.06,10969,13.94,72538.0,-0.57,-32.51,-32.91,0,*69
1522072876.32,10970,13.94,72534.5,-0.57,-31.91,-32.19,0,*6E
1522072877.54,10971,13.94,72536.3,-0.57,-32.91,-33.31,0,*67
1522072878.82,10972,13.88,72534.3,-0.59,-32.97,-33.31,0,*6C
1522072880.06,10973,13.94,72536.0,-0.59,-34.59,-34.59,0,*60
1522072881.31,10974,13.94,72534.5,-0.59,-34.53,-34.89,0,*60
1522072882.57,10975,13.94,72534.0,-0.59,-34.95,-35.17,0,*6D
1522072883.8,10976,13.94,72534.3,-0.63,-34.07,-34.13,0,*69
1522072885.05,10977,13.94,72536.0,-0.63,-33.95,-33.89,0,*60
1522072886.28,10978,13.94,72532.8,-0.63,-33.95,-34.07,0,*6E
1522072887.55,10979,13.94,72534.0,-0.63,-33.89,-33.89,0,*63
1522072888.79,10980,13.94,72538.3,-0.63,-34.59,-34.47,0,*6A
1522072890.06,10981,13.88,72530.3,-0.67,-34.35,-34.35,0,*60
1522072891.32,10982,13.94,72534.3,-0.67,-33.95,-34.01,0,*69
1522072892.57,10983,13.94,72534.5,-0.69,-33.77,-33.31,0,*6E
1522072893.77,10984,13.94,72532.8,-0.69,-33.15,-33.15,0,*6B
1522072895.05,10985,13.94,72534.5,-0.67,-34.01,-33.89,0,*63
1522072896.27,10986,13.94,72536.3,-0.69,-32.97,-33.67,0,*67
1522072897.53,10987,13.94,72532.5,-0.69,-32.07,-32.75,0,*6D
1522072898.75,10988,13.94,72532.0,-0.69,-31.33,-31.73,0,*63
1522072899.97,10989,13.94,72538.3,-0.69,-33.15,-33.31,0,*60
1522072901.21,10990,13.94,72534.3,-0.69,-32.69,-32.79,0,*6F
1522072902.46,10991,13.94,72530.8,-0.69,-32.63,-32.79,0,*64
1522072903.71,10992,13.94,72536.0,-0.67,-33.27,-33.55,0,*67
1522072904.98,10993,13.94,72534.3,-0.67,-33.37,-33.43,0,*60
1522072906.21,10994,13.94,72532.0,-0.67,-33.37,-33.37,0,*64
1522072907.41,10995,13.94,72534.5,-0.69,-33.15,-32.91,0,*66
1522072908.63,10996,13.94,72532.8,-0.69,-32.91,-32.85,0,*6D
1522072909.88,10997,13.94,72536.8,-0.69,-32.97,-32.97,0,*69
1522072911.16,10998,13.94,72536.5,-0.67,-32.85,-32.29,0,*6E
1522072912.38,10999,13.94,72532.5,-0.69,-30.95,-30.45,0,*6A
1522072913.62,11000,13.94,72534.8,-0.67,-32.13,-32.51,0,*67
1522072914.84,11001,13.94,72532.8,-0.67,-32.13,-32.35,0,*64
1522072916.11,11002,13.94,72534.8,-0.67,-32.29,-32.29,0,*63
1522072917.37,11003,13.94,72534.0,-0.67,-32.13,-31.95,0,*6F
1522072918.65,11004,13.94,72532.3,-0.63,-31.95,-31.73,0,*69
1522072919.87,11005,13.94,72534.5,-0.61,-30.89,-31.05,0,*67
1522072921.07,11006,13.94,72532.0,-0.61,-31.05,-31.17,0,*62
1522072922.32,11007,13.94,72534.3,-0.59,-31.67,-31.57,0,*68
1522072923.58,11008,13.94,72532.8,-0.59,-32.97,-32.91,0,*62
1522072924.84,11009,13.94,72534.8,-0.59,-32.01,-32.07,0,*63
1522072926.1,11010,13.94,72536.8,-0.57,-31.73,-32.19,0,*6C
1522072927.29,11011,13.94,72532.0,-0.57,-32.57,-32.57,0,*62
1522072928.52,11012,13.94,72536.5,-0.59,-32.35,-32.23,0,*68
1522072929.72,11013,13.94,72532.8,-0.57,-32.23,-32.51,0,*65
1522072930.97,11014,13.94,72532.8,-0.57,-30.51,-31.85,0,*6F
1522072932.18,11015,13.94,72540.0,-0.57,-29.61,-30.83,0,*62
1522072933.43,11016,13.94,72534.5,-0.57,-30.05,-31.51,0,*65
1522072934.68,11017,13.94,72538.5,-0.55,-30.33,-31.61,0,*60
1522072935.91,11018,13.94,72538.0,-0.53,-29.17,-30.45,0,*60
1522072937.18,11019,13.94,72536.0,-0.55,-31.11,-32.29,0,*60
1522072938.41,11020,13.94,72536.8,-0.53,-31.67,-32.45,0,*67
1522072939.61,11021,13.94,72536.3,-0.53,-32.51,-33.03,0,*63
1522072940.88,11022,13.94,72536.3,-0.55,-31.39,-31.95,0,*66
1522072942.14,11023,13.94,72534.5,-0.55,-32.13,-32.75,0,*61
1522072943.36,11024,13.94,72536.8,-0.55,-32.51,-33.03,0,*60
1522072944.58,11025,13.94,72534.8,-0.55,-31.29,-32.35,0,*69
1522072945.81,11026,13.94,72536.0,-0.55,-31.67,-32.51,0,*62
1522072947.01,11027,13.94,72536.0,-0.53,-31.29,-32.01,0,*6A
1522072948.27,11028,13.94,72536.8,-0.55,-32.01,-32.75,0,*69
1522072949.53,11029,13.94,72536.5,-0.55,-32.51,-32.75,0,*6D
1522072950.75,11030,13.94,72536.5,-0.53,-32.91,-33.27,0,*69
1522072952.01,11031,13.94,72536.0,-0.55,-32.85,-32.91,0,*67
1522072953.29,11032,13.94,72538.0,-0.55,-33.73,-33.77,0,*65
1522072954.53,11033,13.94,72534.5,-0.55,-33.77,-33.83,0,*6B
1522072955.74,11034,13.94,72534.8,-0.57,-33.83,-34.13,0,*6B
1522072956.96,11035,13.94,72536.0,-0.57,-33.77,-33.83,0,*6F
1522072958.16,11036,13.94,72536.8,-0.57,-34.41,-34.71,0,*64
1522072959.41,11037,13.94,72536.8,-0.59,-34.25,-34.19,0,*67
1522072960.64,11038,13.94,72538.5,-0.59,-33.67,-33.67,0,*67
1522072961.87,11039,13.94,72534.8,-0.61,-32.69,-32.97,0,*6C
1522072963.1,11040,13.94,72538.3,-0.61,-32.85,-33.03,0,*6C
1522072964.3,11041,13.94,72534.3,-0.61,-33.83,-33.55,0,*69
1522072965.56,11042,13.94,72536.5,-0.63,-33.73,-33.37,0,*63
1522072966.76,11043,13.94,72532.0,-0.61,-33.55,-33.37,0,*64
1522072968.01,11044,13.94,72532.5,-0.61,-33.89,-33.89,0,*67
1522072969.23,11045,13.94,72532.0,-0.63,-33.95,-33.83,0,*63
1522072970.46,11046,13.94,72532.5,-0.63,-33.95,-33.83,0,*60
1522072971.74,11047,13.94,72536.3,-0.63,-33.49,-33.31,0,*69
1522072972.99,11048,13.94,72534.8,-0.63,-33.95,-33.73,0,*61
1522072974.22,11049,13.94,72532.0,-0.63,-34.13,-33.83,0,*66
1522072975.44,11050,13.94,72532.0,-0.63,-34.47,-34.41,0,*66
1522072976.73,11051,13.94,72534.0,-0.67,-34.35,-34.01,0,*62
1522072977.95,11052,13.94,72534.5,-0.69,-34.41,-34.35,0,*6B
1522072979.22,11053,13.94,72534.8,-0.67,-33.89,-34.01,0,*60
1522072980.48,11054,13.94,72532.3,-0.69,-33.09,-33.43,0,*60
1522072981.71,11055,13.94,72534.3,-0.69,-32.39,-33.77,0,*64
1522072982.93,11056,13.94,72534.0,-0.69,-32.51,-33.77,0,*69
1522072984.16,11057,13.94,72534.0,-0.67,-33.21,-33.95,0,*6C
1522072985.41,11058,13.94,72534.8,-0.69,-33.77,-34.01,0,*64
1522072986.63,11059,13.94,72534.0,-0.69,-33.61,-33.67,0,*65
1522072987.88,11060,13.94,72534.0,-0.71,-33.77,-33.83,0,*6B
1522072989.16,11061,13.94,72534.8,-0.71,-33.09,-32.85,0,*64
1522072990.38,11062,13.94,72534.5,-0.73,-32.45,-33.55,0,*60
1522072991.63,11063,13.94,72532.3,-0.71,-32.79,-34.07,0,*6C
1522072992.83,11064,13.94,72538.8,-0.73,-33.21,-33.83,0,*6E
1522072994.05,11065,13.94,72534.8,-0.73,-32.39,-33.31,0,*6E
1522072995.29,11066,13.94,72532.8,-0.75,-34.59,-35.01,0,*6E
1522072996.53,11067,13.94,72532.0,-0.75,-34.47,-34.77,0,*60
1522072997.75,11068,13.94,72534.8,-0.77,-33.95,-33.89,0,*63
1522072999.0,11069,13.94,72530.8,-0.77,-34.19,-33.89,0,*61
1522073000.2,11070,13.94,72530.0,-0.77,-33.95,-33.21,0,*68
1522073001.41,11071,13.94,72530.5,-0.77,-32.01,-29.67,0,*6C
1522073002.63,11072,13.94,72534.8,-0.77,-31.05,-30.55,0,*61
1522073003.89,11073,13.94,72534.8,-0.79,-31.85,-32.91,0,*6C
1522073005.14,11074,13.94,72534.3,-0.79,-32.91,-32.63,0,*60
1522073006.4,11075,13.94,72532.0,-0.79,-31.45,-30.95,0,*60
1522073007.65,11076,13.94,72536.8,-0.79,-32.29,-30.67,0,*67
1522073008.91,11077,13.94,72536.0,-0.79,-31.39,-29.83,0,*66
1522073010.17,11078,13.94,72532.8,-0.79,-30.67,-29.89,0,*69
1522073011.39,11079,13.94,72532.3,-0.77,-31.29,-30.01,0,*65
1522073012.64,11080,13.94,72536.3,-0.77,-30.77,-30.39,0,*62
1522073013.9,11081,13.94,72538.5,-0.75,-30.17,-30.11,0,*6D
1522073015.13,11082,13.94,72538.3,-0.73,-30.77,-30.67,0,*6F
1522073016.38,11083,13.94,72534.5,-0.75,-31.33,-31.51,0,*6D
1522073017.63,11084,13.94,72532.0,-0.75,-31.17,-31.57,0,*6A
1522073018.86,11085,13.94,72536.0,-0.71,-31.01,-31.45,0,*6B
1522073020.1,11086,13.94,72536.3,-0.71,-32.19,-32.57,0,*62
1522073021.3,11087,13.94,72534.0,-0.73,-33.15,-33.15,0,*6B
1522073022.52,11088,13.94,72536.3,-0.73,-32.39,-32.75,0,*6C
1522073023.78,11089,13.94,72534.5,-0.71,-30.83,-32.19,0,*66
1522073025.01,11090,13.94,72534.5,-0.71,-31.67,-32.39,0,*67
1522073026.23,11091,13.94,72538.8,-0.73,-32.63,-33.67,0,*69
1522073027.42,11092,13.94,72534.0,-0.73,-33.55,-34.13,0,*6A
1522073028.68,11093,13.94,72532.8,-0.73,-32.07,-32.75,0,*6B
1522073029.91,11094,13.94,72532.0,-0.73,-31.29,-31.91,0,*6A
1522073031.11,11095,13.94,72536.3,-0.73,-34.07,-34.47,0,*6C
1522073032.37,11096,13.94,72534.8,-0.73,-32.79,-32.85,0,*68
1522073033.62,11097,13.94,72536.5,-0.73,-32.75,-32.79,0,*66
1522073034.88,11098,13.94,72536.3,-0.71,-32.01,-32.07,0,*61
1522073036.13,11099,13.94,72534.3,-0.71,-31.61,-32.23,0,*63
1522073037.36,11100,13.94,72534.3,-0.71,-32.35,-32.51,0,*65
1522073038.61,11101,13.94,72536.8,-0.73,-33.31,-33.49,0,*6B
1522073039.89,11102,13.94,72536.0,-0.71,-32.75,-32.79,0,*69
1522073041.17,11103,13.94,72536.3,-0.71,-33.49,-33.77,0,*69
1522073042.39,11104,13.94,72534.5,-0.73,-33.83,-34.01,0,*6C
1522073043.61,11105,13.94,72538.0,-0.73,-33.15,-33.31,0,*66
1522073044.87,11106,13.94,72536.8,-0.71,-32.79,-33.15,0,*6A
1522073046.07,11107,13.94,72536.8,-0.73,-34.13,-34.47,0,*63
1522073047.33,11108,13.94,72538.3,-0.75,-35.01,-35.23,0,*6B
1522073048.58,11109,13.94,72534.3,-0.75,-34.25,-34.65,0,*6E
1522073049.81,11110,13.94,72534.3,-0.77,-34.65,-34.89,0,*62
1522073051.07,11111,13.94,72534.3,-0.77,-35.07,-35.07,0,*61
1522073052.3,11112,13.94,72538.3,-0.81,-34.19,-34.13,0,*61
1522073053.56,11113,13.94,72534.0,-0.79,-33.37,-33.27,0,*6C
1522073054.81,11114,13.94,72532.0,-0.79,-33.95,-33.89,0,*67
1522073056.09,11115,13.94,72538.3,-0.79,-33.27,-33.27,0,*6B
1522073057.36,11116,13.94,72532.8,-0.79,-33.61,-33.89,0,*6E
1522073058.62,11117,13.94,72538.0,-0.79,-34.83,-34.71,0,*64
1522073059.88,11118,13.94,72532.5,-0.81,-34.95,-34.95,0,*61
1522073061.09,11119,13.94,72532.0,-0.81,-35.29,-35.13,0,*69
1522073062.35,11120,13.94,72534.8,-0.83,-35.83,-35.71,0,*65
1522073063.59,11121,13.94,72534.5,-0.85,-34.65,-34.41,0,*69
1522073064.82,11122,13.94,72538.0,-0.89,-34.71,-34.89,0,*67
1522073066.08,11123,13.94,72532.5,-0.91,-35.83,-35.83,0,*68
1522073067.33,11124,13.94,72534.0,-0.91,-35.07,-35.65,0,*6B
1522073068.58,11125,13.94,72534.3,-0.91,-33.89,-34.35,0,*6E
1522073069.78,11126,13.94,72534.3,-0.91,-33.95,-34.13,0,*64
1522073071.02,11127,13.94,72536.8,-0.93,-33.27,-33.95,0,*67
1522073072.26,11128,13.94,72534.8,-0.93,-33.61,-34.41,0,*64
1522073073.48,11129,13.94,72536.5,-0.95,-34.71,-35.13,0,*63
1522073074.71,11130,13.94,72532.5,-0.95,-34.01,-34.59,0,*63
1522073075.91,11131,13.94,72534.0,-0.95,-32.51,-33.03,0,*69
1522073077.12,11132,13.94,72532.0,-0.95,-32.51,-32.51,0,*6C
1522073078.37,11133,13.94,72534.0,-0.95,-34.19,-35.07,0,*63
1522073079.61,11134,13.94,72532.3,-0.97,-34.59,-35.01,0,*64
1522073080.86,11135,13.94,72534.3,-0.99,-33.27,-34.31,0,*67
1522073082.11,11136,13.94,72532.8,-0.99,-34.53,-35.23,0,*62
1522073083.4,11137,13.94,72528.3,-1.01,-33.77,-34.53,0,*54
1522073084.69,11138,13.94,72530.5,-1.01,-33.73,-34.53,0,*5F
1522073085.94,11139,13.94,72530.5,-1.03,-33.43,-34.31,0,*5B
1522073087.2,11140,13.94,72534.8,-1.03,-33.31,-34.19,0,*5A
1522073088.45,11141,13.94,72528.0,-1.03,-33.43,-34.19,0,*5E
1522073089.69,11142,13.94,72530.0,-1.07,-32.75,-33.37,0,*56
1522073090.94,11143,13.94,72530.5,-1.07,-29.57,-31.23,0,*5A
1522073092.18,11144,13.94,72534.3,-1.07,-31.57,-33.55,0,*57
1522073093.41,11145,13.94,72532.0,-1.07,-32.57,-33.89,0,*54
1522073094.65,11146,13.94,72530.5,-1.11,-32.39,-33.31,0,*5B
1522073095.92,11147,13.94,72532.5,-1.13,-31.23,-31.17,0,*56
1522073097.18,11148,13.94,72532.3,-1.13,-29.79,-26.97,0,*51
1522073098.43,11149,13.94,72534.5,-1.15,-27.39,-25.61,0,*56
1522073099.67,11150,13.94,72532.3,-1.15,-29.39,-26.61,0,*53
1522073100.9,11151,13.94,72532.3,-1.17,-29.57,-24.87,0,*52
1522073102.13,11152,13.94,72536.3,-1.17,-27.35,-22.53,0,*54
1522073103.38,11153,13.94,72534.8,-1.19,-26.45,-22.77,0,*5B
1522073104.61,11154,13.94,72534.0,-1.17,-26.77,-23.89,0,*53
1522073105.86,11155,14.0,72536.0,-1.19,-27.51,-25.03,0,*5D
1522073107.11,11156,13.94,72532.8,-1.19,-27.35,-25.19,0,*57
1522073108.32,11157,13.94,72532.0,-1.21,-26.39,-25.09,0,*51
1522073109.52,11158,13.94,72534.3,-1.21,-25.19,-24.35,0,*51
1522073110.78,11159,13.94,72532.5,-1.23,-23.85,-23.13,0,*52
1522073112.02,11160,13.94,72532.3,-1.21,-22.93,-22.17,0,*59
1522073113.25,11161,13.94,72530.0,-1.25,-21.39,-20.49,0,*56
1522073114.53,11162,13.94,72530.3,-1.23,-19.65,-18.59,0,*5B
1522073115.76,11163,13.94,72530.8,-1.23,-20.43,-19.75,0,*5B
1522073116.97,11164,13.94,72530.8,-1.21,-21.09,-20.73,0,*5D
1522073118.18,11165,13.94,72528.5,-1.21,-21.47,-20.73,0,*56
1522073119.43,11166,14.0,72532.8,-1.19,-22.11,-21.67,0,*5A
1522073120.68,11167,13.94,72534.3,-1.19,-20.73,-21.33,0,*5C
1522073121.96,11168,13.94,72530.5,-1.19,-20.49,-20.99,0,*5B
1522073123.22,11169,13.94,72532.0,-1.19,-20.83,-21.47,0,*5E
1522073124.44,11170,13.94,72534.3,-1.19,-21.63,-22.11,0,*59
1522073125.69,11171,13.94,72532.3,-1.15,-21.63,-21.23,0,*56
1522073126.93,11172,13.94,72528.8,-1.15,-20.99,-21.39,0,*5A
1522073128.16,11173,13.94,72528.3,-1.15,-20.83,-22.37,0,*5D
1522073129.42,11174,14.0,72534.0,-1.15,-21.27,-23.49,0,*5D
1522073130.68,11175,13.94,72528.8,-1.13,-21.13,-23.99,0,*50
1522073131.92,11176,13.94,72528.8,-1.13,-21.77,-25.91,0,*5F
1522073133.16,11177,13.94,72530.3,-1.13,-21.73,-25.39,0,*58
1522073134.39,11178,13.94,72528.8,-1.11,-21.57,-25.35,0,*5F
1522073135.63,11179,13.94,72530.3,-1.13,-22.57,-27.77,0,*5B
1522073136.88,11180,13.94,72528.8,-1.11,-24.87,-29.39,0,*50
1522073138.15,11181,14.0,72528.8,-1.05,-27.51,-29.89,0,*57
1522073139.39,11182,13.94,72528.0,-1.11,-28.69,-30.61,0,*5B
1522073140.67,11183,13.94,72528.0,-1.13,-32.97,-34.31,0,*53
1522073141.95,11184,14.0,72532.0,-1.13,-31.57,-31.91,0,*54
1522073143.21,11185,13.94,72530.0,-1.15,-33.43,-33.89,0,*5F
1522073144.48,11186,13.94,72530.5,-1.15,-34.83,-34.83,0,*5A
1522073145.71,11187,14.0,72534.0,-1.17,-34.65,-34.13,0,*58
1522073146.95,11188,13.94,72528.8,-1.17,-35.65,-35.07,0,*52
1522073148.18,11189,13.94,72532.3,-1.21,-35.23,-35.47,0,*50
1522073149.41,11190,13.94,72530.5,-1.23,-33.55,-34.77,0,*5F
1522073150.68,11191,14.0,72530.5,-1.23,-32.69,-33.49,0,*5A
1522073151.93,11192,14.0,72530.3,-1.25,-31.91,-32.85,0,*5A
1522073153.17,11193,13.94,72530.5,-1.25,-29.95,-30.17,0,*5F
1522073154.41,11194,13.94,72530.3,-1.25,-27.99,-29.13,0,*56
1522073155.64,11195,13.94,72530.3,-1.25,-27.71,-28.59,0,*5E
1522073156.87,11196,13.94,72528.8,-1.25,-28.47,-30.23,0,*53
1522073158.11,11197,14.0,72528.5,-1.25,-28.25,-30.83,0,*5C
1522073159.36,11198,13.94,72526.8,-1.27,-28.47,-31.79,0,*51
1522073160.59,11199,13.94,72528.3,-1.29,-28.79,-31.79,0,*53
1522073161.84,11200,14.0,72532.3,-1.29,-29.73,-32.29,0,*5D
1522073163.11,11201,13.94,72530.8,-1.29,-29.35,-31.11,0,*56
1522073164.37,11202,13.94,72530.5,-1.31,-29.23,-30.77,0,*5A
1522073165.63,11203,14.0,72532.3,-1.31,-28.75,-30.33,0,*59
1522073166.91,11204,13.94,72530.5,-1.31,-27.99,-28.91,0,*52
1522073168.14,11205,13.94,72528.3,-1.29,-26.29,-27.77,0,*57
1522073169.38,11206,13.94,72532.3,-1.27,-25.49,-27.67,0,*5E
1522073170.64,11207,13.94,72530.5,-1.29,-27.61,-29.39,0,*5C
1522073171.84,11208,14.0,72538.0,-1.29,-28.15,-27.93,0,*51
1522073173.1,11209,14.0,72532.3,-1.27,-27.51,-27.99,0,*5B
1522073174.36,11210,14.0,72532.3,-1.27,-29.57,-31.39,0,*56
1522073175.62,11211,14.0,72534.8,-1.29,-30.01,-31.11,0,*58
1522073176.88,11212,14.0,72534.8,-1.27,-28.85,-29.89,0,*58
1522073178.14,11213,13.94,72532.0,-1.29,-27.99,-29.01,0,*55
1522073179.34,11214,14.0,72532.5,-1.29,-28.31,-28.31,0,*5D
1522073180.63,11215,14.0,72536.5,-1.27,-26.97,-27.45,0,*5C
1522073181.88,11216,13.94,72532.3,-1.29,-25.81,-26.97,0,*5B
1522073183.17,11217,13.94,72532.5,-1.27,-24.87,-26.29,0,*56
1522073184.4,11218,14.0,72538.8,-1.27,-25.19,-27.29,0,*5E
1522073185.62,11219,14.0,72534.8,-1.25,-27.23,-29.07,0,*54
1522073186.91,11220,14.0,72538.0,-1.23,-26.97,-28.09,0,*59
1522073188.18,11221,14.0,72532.5,-1.23,-28.75,-29.13,0,*50
1522073189.43,11222,14.0,72534.8,-1.21,-29.13,-30.51,0,*5E
1522073190.66,11223,13.94,72532.0,-1.23,-34.41,-34.89,0,*57
1522073191.88,11224,14.0,72532.5,-1.25,-33.55,-33.61,0,*55
1522073193.12,11225,13.94,72532.3,-1.27,-31.29,-30.27,0,*5E
1522073194.31,11226,14.0,72532.3,-1.25,-31.01,-29.79,0,*56
1522073195.56,11227,14.0,72534.8,-1.25,-31.23,-28.75,0,*5A
1522073196.82,11228,14.0,72532.5,-1.27,-29.67,-26.81,0,*5B
1522073198.02,11229,14.0,72534.5,-1.25,-29.79,-26.23,0,*5F
1522073199.25,11230,14.0,72528.8,-1.23,-30.23,-26.45,0,*56
1522073200.46,11231,14.0,72530.0,-1.25,-29.67,-26.23,0,*59
1522073201.71,11232,14.0,72532.3,-1.25,-28.75,-25.75,0,*58
1522073202.94,11233,14.0,72532.0,-1.25,-27.99,-25.39,0,*5C
1522073204.14,11234,14.0,72534.0,-1.25,-27.13,-24.97,0,*5C
1522073205.36,11235,14.0,72530.5,-1.25,-26.87,-25.45,0,*5F
1522073206.59,11236,14.0,72532.5,-1.25,-25.97,-24.97,0,*50
1522073207.82,11237,14.0,72534.3,-1.25,-24.83,-24.31,0,*59
1522073209.1,11238,14.0,72534.0,-1.27,-24.15,-24.15,0,*5D
1522073210.35,11239,14.0,72534.3,-1.27,-23.33,-23.39,0,*56
1522073211.58,11240,14.0,72534.0,-1.27,-22.07,-22.53,0,*53
1522073212.86,11241,14.0,72534.0,-1.23,-20.99,-22.31,0,*57
1522073214.1,11242,14.0,72534.5,-1.23,-20.59,-22.03,0,*59
1522073215.36,11243,14.0,72534.5,-1.23,-20.49,-22.03,0,*59
1522073216.61,11244,14.0,72534.0,-1.19,-19.81,-21.17,0,*5F
1522073217.87,11245,14.0,72530.8,-1.19,-18.07,-20.49,0,*5B
1522073219.12,11246,14.0,72532.3,-1.19,-18.55,-21.93,0,*59
1522073220.35,11247,14.0,72534.8,-1.17,-18.73,-23.03,0,*59
1522073221.6,11248,14.0,72532.5,-1.17,-19.81,-24.71,0,*58
1522073222.81,11249,14.0,72534.3,-1.15,-20.69,-25.91,0,*58
1522073224.04,11250,14.0,72532.3,-1.15,-22.87,-27.99,0,*58
1522073225.26,11251,14.0,72532.8,-1.15,-27.07,-31.01,0,*52
1522073226.49,11252,14.0,72530.3,-1.17,-28.05,-30.27,0,*5B
1522073227.72,11253,14.0,72532.5,-1.17,-26.77,-27.89,0,*53
1522073228.95,11254,14.0,72530.8,-1.15,-24.77,-25.61,0,*50
1522073230.18,11255,14.0,72532.8,-1.15,-23.65,-24.31,0,*51
1522073231.45,11256,14.0,72532.5,-1.13,-23.95,-25.13,0,*5A
1522073232.71,11257,14.0,72532.0,-1.13,-23.99,-25.23,0,*54
1522073233.95,11258,14.0,72532.3,-1.13,-23.79,-25.39,0,*5E
1522073235.18,11259,14.0,72534.8,-1.11,-26.71,-28.53,0,*51
1522073236.41,11260,14.0,72532.5,-1.11,-27.77,-29.29,0,*50
1522073237.62,11261,14.0,72532.0,-1.11,-28.97,-29.45,0,*5A
1522073238.91,11262,14.0,72534.5,-1.13,-30.51,-30.17,0,*57
1522073240.19,11263,14.0,72530.5,-1.13,-30.89,-30.39,0,*5F
1522073241.47,11264,14.0,72534.5,-1.13,-30.55,-30.39,0,*59
1522073242.73,11265,14.0,72532.5,-1.13,-30.23,-30.55,0,*53
1522073243.99,11266,14.0,72530.0,-1.15,-30.39,-30.73,0,*59
1522073245.22,11267,14.0,72532.5,-1.17,-28.97,-29.01,0,*5A
1522073246.46,11268,14.0,72532.5,-1.17,-27.19,-26.97,0,*5C
1522073247.66,11269,14.0,72530.5,-1.17,-26.45,-26.61,0,*5C
1522073248.87,11270,14.0,72534.0,-1.17,-25.65,-26.03,0,*51
1522073250.08,11271,14.0,72532.0,-1.17,-24.05,-24.05,0,*53
1522073251.31,11272,14.0,72530.8,-1.15,-23.03,-23.59,0,*5D
1522073252.57,11273,14.0,72534.5,-1.15,-23.03,-23.95,0,*5C
1522073253.85,11274,14.0,72532.8,-1.13,-23.29,-23.99,0,*59
1522073255.08,11275,14.0,72532.3,-1.13,-22.67,-23.79,0,*5D
1522073256.34,11276,14.0,72532.8,-1.13,-23.33,-24.47,0,*54
1522073257.55,11277,14.0,72532.5,-1.11,-23.09,-23.59,0,*56
1522073258.78,11278,14.0,72536.8,-1.07,-22.53,-23.43,0,*5B
1522073260.01,11279,14.0,72534.0,-1.07,-23.29,-24.51,0,*52
1522073261.29,11280,14.0,72536.0,-1.05,-24.87,-26.81,0,*5A
1522073262.54,11281,14.0,72532.3,-1.07,-25.75,-27.67,0,*5C
1522073263.75,11282,14.0,72534.0,-1.07,-25.39,-26.87,0,*58
1522073265.04,11283,14.0,72532.3,-1.05,-25.71,-27.35,0,*5F
1522073266.3,11284,14.0,72530.0,-1.05,-26.45,-28.05,0,*50
1522073267.51,11285,14.0,72528.5,-1.03,-26.45,-27.67,0,*5C
1522073268.75,11286,14.0,72534.8,-1.03,-26.81,-27.29,0,*5D
1522073270.01,11287,14.0,72532.3,-1.01,-25.45,-25.13,0,*5E
1522073271.3,11288,14.0,72532.8,-1.01,-23.95,-23.85,0,*53
1522073272.56,11289,14.0,72530.5,-1.03,-24.67,-24.87,0,*5F
1522073273.81,11290,14.0,72530.0,-0.99,-23.65,-23.99,0,*68
1522073275.03,11291,14.0,72532.3,-0.99,-22.83,-23.99,0,*60
1522073276.24,11292,14.0,72534.8,-0.99,-23.75,-25.91,0,*65
1522073277.49,11293,14.0,72532.0,-0.97,-24.57,-28.09,0,*61
1522073278.72,11294,14.0,72532.8,-0.95,-26.03,-29.01,0,*6E
1522073279.99,11295,14.0,72534.3,-0.97,-28.21,-30.67,0,*6B
1522073281.24,11296,14.0,72538.8,-0.97,-30.27,-30.95,0,*6A
1522073282.52,11297,14.0,72532.0,-0.97,-30.77,-30.95,0,*6E
1522073283.75,11298,14.0,72528.3,-0.97,-32.01,-32.23,0,*6D
1522073284.97,11299,14.0,72532.5,-0.97,-31.05,-32.01,0,*6B
1522073286.2,11300,14.0,72532.5,-1.03,-30.73,-32.13,0,*55
1522073287.46,11301,14.0,72536.3,-1.01,-30.33,-31.23,0,*52
1522073288.69,11302,14.0,72538.3,-1.03,-30.51,-32.13,0,*57
1522073289.93,11303,14.0,72532.3,-1.03,-30.27,-31.85,0,*5B
1522073291.16,11304,14.0,72532.5,-1.03,-30.11,-31.51,0,*50
1522073292.39,11305,14.0,72534.3,-1.03,-30.05,-31.79,0,*5E
1522073293.65,11306,14.0,72536.3,-1.05,-29.83,-31.51,0,*57
1522073294.92,11307,14.0,72532.3,-1.07,-31.57,-33.31,0,*50
1522073296.18,11308,14.0,72534.0,-1.07,-32.45,-34.01,0,*5B
1522073297.45,11309,14.0,72532.8,-1.07,-32.45,-33.31,0,*5E
1522073298.65,11310,14.0,72528.0,-1.11,-32.39,-32.57,0,*5B